This demonstration page uses our WeatherBlox Daily Observations layout. Learn more.

Left ArrowRight Arrow

Hourly Observations for July 29, 2016

Temp ( °F °C ) Dew Point ( °F °C ) Humidity (%) Winds ( mph kmh ) Pressure ( in mb ) Visibility ( mi km ) Precip ( " mm )
12:51 am 00:51 Clear 79 26.1 55 12.8 44 44 NNE 8 13 29.76 1008 10 16 0.00 0.00
1:51 am 01:51 Clear 84 28.9 53 11.7 34 34 ENE 3 6 29.75 1007 10 16 0.00 0.00
2:51 am 02:51 Clear 82 27.8 54 12.2 38 38 NW 5 7 29.75 1008 10 16 0.00 0.00
3:51 am 03:51 Clear 79 26.1 54 12.2 42 42 Calm 29.76 1008 10 16 0.00 0.00
4:51 am 04:51 Clear 77 25 54 12.2 45 45 ENE 5 7 29.77 1008 10 16 0.00 0.00
5:51 am 05:51 Sunny 78 25.6 55 12.8 45 45 ESE 8 13 29.79 1009 10 16 0.00 0.00
6:51 am 06:51 Sunny 82 27.8 56 13.3 41 41 ESE 7 11 29.80 1009 10 16 0.00 0.00
7:51 am 07:51 Sunny 89 31.7 56 13.3 33 33 SE 7 11 29.80 1009 10 16 0.00 0.00
8:51 am 08:51 Sunny 92 33.3 53 11.7 27 27 SSE 7 11 29.79 1009 10 16 0.00 0.00
9:51 am 09:51 Sunny 93 33.9 56 13.3 29 29 SSW 8 13 29.80 1009 10 16 0.00 0.00
10:51 am 10:51 Sunny 96 35.6 54 12.2 24 24 SE 3 6 29.78 1009 10 16 0.00 0.00
11:51 am 11:51 Sunny 96 35.6 54 12.2 24 24 Calm 29.77 1008 10 16 0.00 0.00
12:51 pm 12:51 Sunny 98 36.7 53 11.7 22 22 SSW 6 9 29.74 1007 10 16 0.00 0.00
1:51 pm 13:51 Sunny 102 38.9 52 11.1 19 19 SW 7 11 29.69 1006 10 16 0.00 0.00
2:51 pm 14:51 Sunny 101 38.3 50 10 18 18 VRB 3 6 29.67 1005 10 16 0.00 0.00
3:51 pm 15:51 Sunny 103 39.4 49 9.4 16 16 E 24 39 29.69 1006 10 16 0.00 0.00
4:10 pm 16:10 Hazy 95 35 51 10.6 23 23 ENE 39 63 29.65 1004 5 8 0.00 0.00
4:47 pm 16:47 Sunny with Thunderstorms 86 30 54 12 33 33 ENE 39 63 29.71 1006 4 6 0.00 0.00
4:51 pm 16:51 Sunny with Thunderstorms 86 30 55 12.8 35 35 ENE 40 65 29.77 1008 5 8 0.00 0.00
5:02 pm 17:02 Hazy 86 30 54 12.2 33 33 ENE 44 70 29.71 1006 5 8 0.00 0.00
5:51 pm 17:51 Sunny 85 29.4 54 12.2 35 35 ENE 30 48 29.74 1007 10 16 0.00 0.00
6:51 pm 18:51 Sunny 87 30.6 50 10 28 28 Calm 29.73 1007 10 16 0.00 0.00
7:51 pm 19:51 Clear 87 30.6 50 10 28 28 WNW 10 17 29.77 1008 10 16 0.00 0.00
8:51 pm 20:51 Clear 85 29.4 52 11.1 32 32 NW 6 9 29.81 1010 10 16 0.00 0.00
9:51 pm 21:51 Mostly Clear 85 29.4 53 11.7 33 33 WNW 10 17 29.76 1008 10 16 0.00 0.00
10:51 pm 22:51 Clear 82 27.8 56 13.3 41 41 NNW 9 15 29.75 1008 10 16 0.00 0.00
11:51 pm 23:51 Clear 82 27.8 53 11.7 37 37 WSW 3 6 29.76 1008 10 16 0.00 0.00

Powered by AerisWeather